Location: Boda
(47.1872°N, 9.5454°E)
Time: 09:51:55
(UTC+00:00)

ADEOS II - Pass Details

Date: 14 May 2021
Orbit: 799 x 801 km, 98.6° (Epoch: 16 June)

Event Time Altitude Azimuth Distance (km) Brightness Sun altitude
Rises 02:52:21 0° 5° (N) 3,320 6.0 -8.5°
Reaches altitude 10° 02:55:00 10° 353° (N) 2,384 5.0 -8.2°
Maximum altitude 02:59:18 26° 298° (WNW) 1,522 3.4 -7.6°
Drops below altitude 10° 03:03:35 10° 243° (WSW) 2,371 3.9 -7.0°
Enters shadow 03:04:03 - 240° (WSW) 2,525 4.0 -6.9°
